Preview of NWS' New Version of Forecast
This preview is not operational and should not be used for support decisions.

Terminal Aerodrome Forecast (TAF)

Issued by National Weather Service (NWS)

                            
000
FTUS45 KBOI 180523
TAFMYL
TAF
KMYL 180523Z 1806/1906 VRB03KT P6SM SCT200
     FM182000 19008KT P6SM SKC
     FM190200 VRB05KT P6SM SKC=